This demonstration page uses our WeatherBlox Daily Observations layout. Learn more.

Left ArrowRight Arrow

Hourly Observations for April 24, 2020

Temp ( °F °C ) Dew Point ( °F °C ) Humidity (%) Winds ( mph kmh ) Pressure ( in mb ) Visibility ( mi km ) Precip ( " mm )
12:53 am 00:53 Clear 61 16.1 46 7.8 58 58 N 6 9 30.10 1019 10 16 0.00 0.00
1:53 am 01:53 Clear 61 16.1 45 7.2 56 56 NNW 5 7 30.10 1019 10 16 0.00 0.00
2:53 am 02:53 Clear 62 16.7 42 5.6 48 48 N 6 9 30.09 1019 10 16 0.00 0.00
3:53 am 03:53 Clear 55 12.8 44 6.7 67 67 NNE 3 6 30.09 1019 10 16 0.00 0.00
4:53 am 04:53 Clear 55 12.8 44 6.7 67 67 N 7 11 30.10 1019 10 16 0.00 0.00
5:53 am 05:53 Clear 60 15.6 42 5.6 52 52 NNW 7 11 30.10 1019 10 16 0.00 0.00
6:53 am 06:53 Sunny 62 16.7 42 5.6 48 48 N 8 13 30.11 1020 10 16 0.00 0.00
7:53 am 07:53 Sunny 62 16.7 46 7.8 56 56 E 5 7 30.13 1020 10 16 0.00 0.00
8:53 am 08:53 Sunny 66 18.9 48 8.9 52 52 Calm 30.13 1020 10 16 0.00 0.00
9:53 am 09:53 Sunny 74 23.3 45 7.2 36 36 N 6 9 30.11 1020 10 16 0.00 0.00
10:53 am 10:53 Sunny 77 25 45 7.2 32 32 W 5 7 30.11 1020 10 16 0.00 0.00
11:53 am 11:53 Sunny 80 26.7 48 8.9 33 33 VRB 3 6 30.10 1019 10 16 0.00 0.00
12:53 pm 12:53 Sunny 81 27.2 46 7.8 29 29 VRB 3 6 30.08 1019 10 16 0.00 0.00
1:53 pm 13:53 Sunny 83 28.3 48 8.9 30 30 E 6 9 30.06 1018 10 16 0.00 0.00
2:53 pm 14:53 Sunny 84 28.9 45 7.2 25 25 VRB 3 6 30.04 1017 10 16 0.00 0.00
3:53 pm 15:53 Sunny 86 30 47 8.3 26 26 ENE 7 11 30.01 1016 10 16 0.00 0.00
4:53 pm 16:53 Sunny 88 31.1 46 7.8 23 23 Calm 29.99 1016 10 16 0.00 0.00
5:53 pm 17:53 Sunny 85 29.4 48 8.9 28 28 ESE 5 7 29.98 1015 10 16 0.00 0.00
6:53 pm 18:53 Sunny 83 28.3 51 10.6 33 33 ESE 3 6 29.98 1015 10 16 0.00 0.00
7:53 pm 19:53 Sunny 78 25.6 51 10.6 39 39 Calm 29.98 1015 10 16 0.00 0.00
8:53 pm 20:53 Clear 78 25.6 48 8.9 35 35 WNW 7 11 29.99 1016 10 16 0.00 0.00
9:53 pm 21:53 Clear 76 24.4 49 9.4 39 39 NNW 6 9 30.01 1016 10 16 0.00 0.00
10:53 pm 22:53 Clear 65 18.3 55 12.8 70 70 SE 6 9 30.02 1017 10 16 0.00 0.00
11:53 pm 23:53 Clear 66 18.9 52 11.1 61 61 NNW 5 7 30.02 1017 10 16 0.00 0.00

Powered by AerisWeather